"read_dt","SO2 (ppb)","flags","PMT voltage (V)","lamp voltage (V)","lamp intensity (Hz)","internal temp (C)","react chamber temp (C)","sample flow (l/min)","pres (mmHg)","SO2 bkg (ppb)","SO2 coefficient"
2016-04-30 00:00:00,1968E-3,5C000400,-0724,0835,12120,031.9,045.5,0.247,748.9,01.17,0.508
2016-04-30 00:01:00,1897E-3,5C000400,-0724,0834,12136,031.9,045.5,0.248,748.9,01.17,0.508
2016-04-30 00:02:00,1938E-3,5C000400,-0724,0836,11993,031.9,045.5,0.248,748.9,01.17,0.508
2016-04-30 00:03:00,1812E-3,5C000400,-0724,0836,12180,031.9,045.5,0.248,748.9,01.17,0.508
2016-04-30 00:04:00,1935E-3,5C000400,-0724,0835,12158,032.0,045.6,0.248,749.0,01.17,0.508
2016-04-30 00:05:00,1788E-3,5C000400,-0724,0835,12198,031.9,045.5,0.248,748.9,01.17,0.508
2016-04-30 00:06:00,1984E-3,5C000400,-0724,0835,12207,031.9,045.5,0.248,749.0,01.17,0.508
2016-04-30 00:07:00,1687E-3,5C000400,-0724,0835,12160,031.9,045.6,0.247,749.0,01.17,0.508
2016-04-30 00:08:00,1827E-3,5C000400,-0724,0835,12136,032.0,045.5,0.248,748.9,01.17,0.508
2016-04-30 00:09:00,1783E-3,5C000400,-0724,0835,11850,031.9,045.5,0.248,748.9,01.17,0.508
2016-04-30 00:10:00,1941E-3,5C000400,-0724,0835,11982,031.9,045.5,0.248,748.9,01.17,0.508
2016-04-30 00:11:00,1949E-3,5C000400,-0724,0836,12208,031.9,045.6,0.248,749.0,01.17,0.508
2016-04-30 00:12:00,1808E-3,5C000400,-0724,0834,12150,031.9,045.6,0.248,749.0,01.17,0.508
2016-04-30 00:13:00,1890E-3,5C000400,-0724,0836,12254,031.9,045.5,0.248,749.1,01.17,0.508
2016-04-30 00:14:00,1929E-3,5C000400,-0724,0835,12086,031.9,045.6,0.248,749.0,01.17,0.508
2016-04-30 00:15:00,1974E-3,5C000400,-0724,0835,12104,031.9,045.6,0.247,749.1,01.17,0.508
2016-04-30 00:16:00,1948E-3,5C000400,-0724,0835,12096,031.9,045.5,0.248,749.1,01.17,0.508
2016-04-30 00:17:00,1806E-3,5C000400,-0724,0835,12267,031.9,045.5,0.248,749.1,01.17,0.508
2016-04-30 00:18:00,1947E-3,5C000400,-0724,0835,11895,031.9,045.5,0.248,749.1,01.17,0.508
2016-04-30 00:19:00,1779E-3,5C000400,-0724,0835,12047,031.9,045.5,0.248,749.1,01.17,0.508
2016-04-30 00:20:00,1855E-3,5C000400,-0724,0835,12173,032.0,045.6,0.248,749.1,01.17,0.508
2016-04-30 00:21:00,1928E-3,5C000400,-0724,0835,12165,031.9,045.6,0.248,749.1,01.17,0.508
2016-04-30 00:22:00,1969E-3,5C000400,-0724,0835,12122,031.9,045.5,0.247,749.1,01.17,0.508
2016-04-30 00:23:00,1813E-3,5C000400,-0724,0835,11965,031.9,045.5,0.248,749.0,01.17,0.508
2016-04-30 00:24:00,1834E-3,5C000400,-0724,0835,12085,031.9,045.6,0.248,749.1,01.17,0.508
2016-04-30 00:25:00,1851E-3,5C000400,-0724,0835,12194,032.0,045.5,0.248,749.0,01.17,0.508
2016-04-30 00:26:00,2027E-3,5C000400,-0724,0835,12243,032.0,045.5,0.248,749.1,01.17,0.508
2016-04-30 00:27:00,1822E-3,5C000400,-0724,0836,12065,032.0,045.6,0.248,749.0,01.17,0.508
2016-04-30 00:28:00,1811E-3,5C000400,-0724,0836,12153,031.9,045.5,0.248,749.0,01.17,0.508
2016-04-30 00:29:00,1817E-3,5C000400,-0724,0836,12054,032.0,045.5,0.247,749.1,01.17,0.508
2016-04-30 00:30:00,1685E-3,5C000400,-0724,0835,12035,032.0,045.6,0.248,749.1,01.17,0.508
2016-04-30 00:31:00,1872E-3,5C000400,-0724,0834,12106,032.0,045.6,0.248,749.1,01.17,0.508
2016-04-30 00:32:00,1873E-3,5C000400,-0724,0835,12219,032.0,045.6,0.247,749.1,01.17,0.508
2016-04-30 00:33:00,1799E-3,5C000400,-0724,0835,12065,032.0,045.5,0.248,749.1,01.17,0.508
2016-04-30 00:34:00,1870E-3,5C000400,-0724,0835,12219,032.0,045.5,0.248,749.1,01.17,0.508
2016-04-30 00:35:00,1858E-3,5C000400,-0724,0836,12081,032.0,045.5,0.248,749.1,01.17,0.508
2016-04-30 00:36:00,1877E-3,5C000400,-0724,0835,12053,032.0,045.5,0.247,749.1,01.17,0.508
2016-04-30 00:37:00,1996E-3,5C000400,-0724,0834,12105,032.0,045.5,0.248,749.2,01.17,0.508
2016-04-30 00:38:00,1917E-3,5C000400,-0724,0836,12181,032.0,045.5,0.248,749.2,01.17,0.508
2016-04-30 00:39:00,1870E-3,5C000400,-0724,0835,11972,032.0,045.5,0.247,749.2,01.17,0.508
2016-04-30 00:40:00,1822E-3,5C000400,-0724,0836,12168,032.0,045.6,0.248,749.2,01.17,0.508
2016-04-30 00:41:00,1919E-3,5C000400,-0724,0835,12097,032.0,045.5,0.248,749.2,01.17,0.508
2016-04-30 00:42:00,1843E-3,5C000400,-0724,0835,12253,032.0,045.5,0.248,749.2,01.17,0.508
2016-04-30 00:43:00,1947E-3,5C000400,-0724,0835,12028,032.0,045.5,0.248,749.2,01.17,0.508
2016-04-30 00:44:00,1825E-3,5C000400,-0724,0835,12144,032.0,045.5,0.248,749.2,01.17,0.508
2016-04-30 00:45:00,1845E-3,5C000400,-0724,0835,12255,032.0,045.5,0.248,749.2,01.17,0.508
2016-04-30 00:46:00,2020E-3,5C000400,-0724,0835,12173,032.0,045.5,0.247,749.2,01.17,0.508
2016-04-30 00:47:00,1935E-3,5C000400,-0724,0836,12208,032.0,045.6,0.248,749.2,01.17,0.508
2016-04-30 00:48:00,2068E-3,5C000400,-0724,0836,12117,032.0,045.5,0.248,749.2,01.17,0.508
2016-04-30 00:49:00,1915E-3,5C000400,-0724,0835,11947,032.0,045.5,0.247,749.3,01.17,0.508
2016-04-30 00:50:00,1876E-3,5C000400,-0724,0835,12104,032.0,045.5,0.248,749.3,01.17,0.508
2016-04-30 00:51:00,1913E-3,5C000400,-0724,0835,12030,032.0,045.6,0.248,749.3,01.17,0.508
2016-04-30 00:52:00,1910E-3,5C000400,-0724,0835,11961,032.0,045.5,0.248,749.4,01.17,0.508
2016-04-30 00:53:00,1858E-3,5C000400,-0724,0835,12168,032.0,045.5,0.247,749.3,01.17,0.508
2016-04-30 00:54:00,1873E-3,5C000400,-0724,0836,12043,032.0,045.5,0.248,749.3,01.17,0.508
2016-04-30 00:55:00,2021E-3,5C000400,-0724,0836,12013,032.0,045.6,0.248,749.3,01.17,0.508
2016-04-30 00:56:00,1788E-3,5C000400,-0724,0835,12140,032.0,045.6,0.247,749.3,01.17,0.508
2016-04-30 00:57:00,1974E-3,5C000400,-0724,0836,12239,032.1,045.5,0.247,749.4,01.17,0.508
2016-04-30 00:58:00,1997E-3,5C000400,-0724,0835,12070,032.1,045.5,0.248,749.4,01.17,0.508
2016-04-30 00:59:00,1883E-3,5C000400,-0724,0836,12163,032.0,045.6,0.248,749.3,01.17,0.508
2016-04-30 01:00:00,1895E-3,5C000400,-0724,0835,11988,032.0,045.6,0.247,749.3,01.17,0.508
2016-04-30 01:01:00,1863E-3,5C000400,-0724,0836,12141,032.0,045.5,0.248,749.3,01.17,0.508
2016-04-30 01:02:00,1888E-3,5C000400,-0724,0836,12013,032.1,045.5,0.248,749.3,01.17,0.508
2016-04-30 01:03:00,2053E-3,5C000400,-0724,0835,12204,032.0,045.6,0.247,749.3,01.17,0.508
2016-04-30 01:04:00,1869E-3,5C000400,-0724,0835,12042,032.1,045.6,0.247,749.4,01.17,0.508
2016-04-30 01:05:00,1793E-3,5C000400,-0724,0835,12150,032.1,045.6,0.248,749.3,01.17,0.508
2016-04-30 01:06:00,1895E-3,5C000400,-0724,0835,12023,032.1,045.6,0.248,749.4,01.17,0.508
2016-04-30 01:07:00,1982E-3,5C000400,-0724,0835,12201,032.1,045.5,0.247,749.4,01.17,0.508
2016-04-30 01:08:00,1860E-3,5C000400,-0724,0836,12258,032.1,045.6,0.248,749.3,01.17,0.508
2016-04-30 01:09:00,1934E-3,5C000400,-0724,0834,12099,032.0,045.6,0.248,749.3,01.17,0.508
2016-04-30 01:10:00,1908E-3,5C000400,-0724,0836,12209,032.1,045.5,0.248,749.3,01.17,0.508
2016-04-30 01:11:00,1851E-3,5C000400,-0724,0835,12177,032.1,045.6,0.247,749.4,01.17,0.508
2016-04-30 01:12:00,1809E-3,5C000400,-0724,0835,12220,032.1,045.6,0.247,749.4,01.17,0.508
2016-04-30 01:13:00,1939E-3,5C000400,-0724,0835,12151,032.1,045.6,0.248,749.4,01.17,0.508
2016-04-30 01:14:00,1954E-3,5C000400,-0724,0835,12088,032.1,045.5,0.247,749.4,01.17,0.508
2016-04-30 01:15:00,1879E-3,5C000400,-0724,0835,12158,032.1,045.5,0.247,749.4,01.17,0.508
2016-04-30 01:16:00,1913E-3,5C000400,-0724,0835,12169,032.1,045.6,0.248,749.5,01.17,0.508
2016-04-30 01:17:00,1858E-3,5C000400,-0724,0835,12045,032.1,045.6,0.248,749.4,01.17,0.508
2016-04-30 01:18:00,1902E-3,5C000400,-0724,0835,12136,032.1,045.6,0.247,749.5,01.17,0.508
2016-04-30 01:19:00,1729E-3,5C000400,-0724,0836,12318,032.1,045.5,0.247,749.4,01.17,0.508
2016-04-30 01:20:00,1975E-3,5C000400,-0724,0835,12076,032.1,045.5,0.247,749.5,01.17,0.508
2016-04-30 01:21:00,1922E-3,5C000400,-0724,0836,12065,032.1,045.5,0.247,749.5,01.17,0.508
2016-04-30 01:22:00,1856E-3,5C000400,-0724,0836,12095,032.1,045.6,0.247,749.5,01.17,0.508
2016-04-30 01:23:00,1924E-3,5C000400,-0724,0835,12128,032.1,045.5,0.248,749.5,01.17,0.508
2016-04-30 01:24:00,1925E-3,5C000400,-0724,0835,12083,032.1,045.5,0.247,749.5,01.17,0.508
2016-04-30 01:25:00,1758E-3,5C000400,-0724,0835,12280,032.1,045.6,0.247,749.5,01.17,0.508
2016-04-30 01:26:00,1961E-3,5C000400,-0724,0835,12094,032.1,045.6,0.248,749.5,01.17,0.508
2016-04-30 01:27:00,1963E-3,5C000400,-0724,0835,11957,032.1,045.6,0.248,749.5,01.17,0.508
2016-04-30 01:28:00,1920E-3,5C000400,-0724,0835,12180,032.1,045.5,0.247,749.5,01.17,0.508
2016-04-30 01:29:00,1711E-3,5C000400,-0724,0835,12105,032.1,045.5,0.248,749.5,01.17,0.508
2016-04-30 01:30:00,1860E-3,5C000400,-0724,0835,12104,032.1,045.6,0.248,749.5,01.17,0.508
2016-04-30 01:31:00,1812E-3,5C000400,-0724,0835,12134,032.1,045.6,0.247,749.5,01.17,0.508
2016-04-30 01:32:00,1944E-3,5C000400,-0724,0835,12058,032.1,045.6,0.247,749.5,01.17,0.508
2016-04-30 01:33:00,1809E-3,5C000400,-0724,0835,12123,032.1,045.6,0.248,749.5,01.17,0.508
2016-04-30 01:34:00,1796E-3,5C000400,-0724,0836,12211,032.1,045.6,0.247,749.5,01.17,0.508
2016-04-30 01:35:00,1803E-3,5C000400,-0724,0836,12148,032.2,045.5,0.247,749.5,01.17,0.508
2016-04-30 01:36:00,1845E-3,5C000400,-0724,0835,12235,032.1,045.6,0.247,749.5,01.17,0.508
2016-04-30 01:37:00,1924E-3,5C000400,-0724,0834,12223,032.1,045.5,0.248,749.5,01.17,0.508
2016-04-30 01:38:00,1763E-3,5C000400,-0724,0836,11966,032.2,045.5,0.247,749.5,01.17,0.508
2016-04-30 01:39:00,1896E-3,5C000400,-0724,0835,12189,032.2,045.5,0.247,749.5,01.17,0.508
2016-04-30 01:40:00,1794E-3,5C000400,-0724,0835,12249,032.2,045.6,0.247,749.5,01.17,0.508
2016-04-30 01:41:00,1857E-3,5C000400,-0724,0835,11958,032.1,045.6,0.247,749.5,01.17,0.508
2016-04-30 01:42:00,1821E-3,5C000400,-0724,0835,11983,032.2,045.6,0.247,749.5,01.17,0.508
2016-04-30 01:43:00,1873E-3,5C000400,-0724,0836,12184,032.2,045.6,0.247,749.5,01.17,0.508
2016-04-30 01:44:00,1846E-3,5C000400,-0724,0835,12115,032.2,045.5,0.247,749.5,01.17,0.508
2016-04-30 01:45:00,1917E-3,5C000400,-0724,0835,12087,032.2,045.5,0.247,749.5,01.17,0.508
2016-04-30 01:46:00,1921E-3,5C000400,-0724,0835,12201,032.2,045.5,0.247,749.5,01.17,0.508
2016-04-30 01:47:00,1897E-3,5C000400,-0724,0835,12215,032.2,045.6,0.247,749.5,01.17,0.508
2016-04-30 01:48:00,1750E-3,5C000400,-0724,0835,12061,032.2,045.6,0.247,749.5,01.17,0.508
2016-04-30 01:49:00,1851E-3,5C000400,-0724,0835,12134,032.2,045.6,0.247,749.5,01.17,0.508
2016-04-30 01:50:00,1851E-3,5C000400,-0724,0836,12291,032.2,045.6,0.247,749.5,01.17,0.508
2016-04-30 01:51:00,1907E-3,5C000400,-0724,0835,12102,032.2,045.6,0.247,749.5,01.17,0.508
2016-04-30 01:52:00,1880E-3,5C000400,-0724,0835,12110,032.2,045.6,0.247,749.5,01.17,0.508
2016-04-30 01:53:00,1875E-3,5C000400,-0724,0835,12106,032.2,045.6,0.247,749.5,01.17,0.508
2016-04-30 01:54:00,1842E-3,5C000400,-0724,0836,12240,032.2,045.6,0.247,749.6,01.17,0.508
2016-04-30 01:55:00,1823E-3,5C000400,-0724,0836,12119,032.3,045.5,0.247,749.5,01.17,0.508
2016-04-30 01:56:00,1983E-3,5C000400,-0724,0835,12160,032.3,045.5,0.247,749.5,01.17,0.508
2016-04-30 01:57:00,1927E-3,5C000400,-0724,0835,12054,032.3,045.5,0.247,749.5,01.17,0.508
2016-04-30 01:58:00,1812E-3,5C000400,-0724,0836,12076,032.2,045.6,0.247,749.6,01.17,0.508
2016-04-30 01:59:00,1880E-3,5C000400,-0724,0835,12313,032.2,045.6,0.247,749.6,01.17,0.508
2016-04-30 02:00:00,2008E-3,5C000400,-0724,0836,12074,032.2,045.6,0.247,749.6,01.17,0.508
2016-04-30 02:01:00,1981E-3,5C000400,-0724,0835,12175,032.3,045.6,0.247,749.6,01.17,0.508
2016-04-30 02:02:00,1866E-3,5C000400,-0724,0836,12115,032.3,045.6,0.247,749.6,01.17,0.508
2016-04-30 02:03:00,1897E-3,5C000400,-0724,0836,12172,032.2,045.6,0.247,749.6,01.17,0.508
2016-04-30 02:04:00,1839E-3,5C000400,-0724,0836,12205,032.3,045.6,0.247,749.6,01.17,0.508
2016-04-30 02:05:00,1851E-3,5C000400,-0724,0835,12027,032.3,045.6,0.247,749.6,01.17,0.508
2016-04-30 02:06:00,1885E-3,5C000400,-0724,0836,12054,032.3,045.5,0.247,749.6,01.17,0.508
2016-04-30 02:07:00,1896E-3,5C000400,-0724,0836,12070,032.3,045.6,0.247,749.6,01.17,0.508
2016-04-30 02:08:00,1868E-3,5C000400,-0724,0834,11995,032.3,045.6,0.247,749.6,01.17,0.508
2016-04-30 02:09:00,1903E-3,5C000400,-0724,0835,12117,032.3,045.6,0.247,749.6,01.17,0.508
2016-04-30 02:10:00,1777E-3,5C000400,-0724,0835,12100,032.3,045.6,0.248,749.6,01.17,0.508
2016-04-30 02:11:00,1923E-3,5C000400,-0724,0836,12234,032.3,045.6,0.247,749.6,01.17,0.508
2016-04-30 02:12:00,1977E-3,5C000400,-0724,0836,12165,032.3,045.6,0.247,749.6,01.17,0.508
2016-04-30 02:13:00,1904E-3,5C000400,-0724,0835,12043,032.3,045.6,0.247,749.6,01.17,0.508
2016-04-30 02:14:00,1888E-3,5C000400,-0724,0835,12237,032.3,045.5,0.247,749.6,01.17,0.508
2016-04-30 02:15:00,1971E-3,5C000400,-0724,0834,12018,032.4,045.6,0.247,749.7,01.17,0.508
2016-04-30 02:16:00,1785E-3,5C000400,-0724,0836,12148,032.3,045.6,0.247,749.7,01.17,0.508
2016-04-30 02:17:00,2097E-3,5C000400,-0724,0835,12150,032.3,045.6,0.247,749.7,01.17,0.508
2016-04-30 02:18:00,1759E-3,5C000400,-0724,0835,12148,032.4,045.6,0.247,749.7,01.17,0.508
2016-04-30 02:19:00,1890E-3,5C000400,-0724,0835,12224,032.3,045.6,0.247,749.7,01.17,0.508
2016-04-30 02:20:00,1873E-3,5C000400,-0724,0835,12017,032.4,045.6,0.247,749.7,01.17,0.508
2016-04-30 02:21:00,1949E-3,5C000400,-0724,0835,12105,032.4,045.6,0.247,749.7,01.17,0.508
2016-04-30 02:22:00,1867E-3,5C000400,-0724,0835,12105,032.4,045.6,0.247,749.7,01.17,0.508
2016-04-30 02:23:00,2000E-3,5C000400,-0724,0836,12097,032.4,045.6,0.247,749.7,01.17,0.508
2016-04-30 02:24:00,1865E-3,5C000400,-0724,0835,12113,032.4,045.6,0.246,749.7,01.17,0.508
2016-04-30 02:25:00,1865E-3,5C000400,-0724,0835,12082,032.4,045.6,0.247,749.7,01.17,0.508
2016-04-30 02:26:00,1865E-3,5C000400,-0724,0836,12079,032.4,045.6,0.247,749.8,01.17,0.508
2016-04-30 02:27:00,1951E-3,5C000400,-0724,0835,12091,032.4,045.6,0.247,749.8,01.17,0.508
2016-04-30 02:28:00,1845E-3,5C000400,-0724,0836,12123,032.4,045.6,0.246,749.8,01.17,0.508
2016-04-30 02:29:00,1728E-3,5C000400,-0724,0835,12156,032.4,045.6,0.247,749.8,01.17,0.508
2016-04-30 02:30:00,1913E-3,5C000400,-0724,0835,12170,032.4,045.6,0.247,749.8,01.17,0.508
2016-04-30 02:31:00,1954E-3,5C000400,-0724,0836,12243,032.4,045.6,0.247,749.8,01.17,0.508
2016-04-30 02:32:00,1827E-3,5C000400,-0724,0835,12190,032.5,045.6,0.246,749.8,01.17,0.508
2016-04-30 02:33:00,1995E-3,5C000400,-0724,0835,12096,032.5,045.6,0.246,749.8,01.17,0.508
2016-04-30 02:34:00,2012E-3,5C000400,-0724,0836,12074,032.5,045.5,0.247,749.8,01.17,0.508
2016-04-30 02:35:00,1798E-3,5C000400,-0724,0835,12066,032.4,045.6,0.247,749.8,01.17,0.508
2016-04-30 02:36:00,1964E-3,5C000400,-0724,0835,12043,032.5,045.6,0.246,749.8,01.17,0.508
2016-04-30 02:37:00,1930E-3,5C000400,-0724,0835,12170,032.5,045.6,0.246,749.8,01.17,0.508
2016-04-30 02:38:00,1966E-3,5C000400,-0724,0835,12133,032.5,045.6,0.247,749.8,01.17,0.508
2016-04-30 02:39:00,1956E-3,5C000400,-0724,0835,12269,032.5,045.6,0.247,749.8,01.17,0.508
2016-04-30 02:40:00,1958E-3,5C000400,-0724,0836,12081,032.5,045.6,0.246,749.8,01.17,0.508
2016-04-30 02:41:00,1861E-3,5C000400,-0724,0835,12139,032.5,045.6,0.246,749.8,01.17,0.508
2016-04-30 02:42:00,1802E-3,5C000400,-0724,0835,12147,032.5,045.6,0.247,749.8,01.17,0.508
2016-04-30 02:43:00,1828E-3,5C000400,-0724,0836,12059,032.5,045.6,0.247,749.8,01.17,0.508
2016-04-30 02:44:00,1845E-3,5C000400,-0724,0835,12192,032.5,045.6,0.246,749.8,01.17,0.508
2016-04-30 02:45:00,1954E-3,5C000400,-0724,0835,12160,032.5,045.6,0.246,749.9,01.17,0.508
2016-04-30 02:46:00,1902E-3,5C000400,-0724,0835,12156,032.5,045.6,0.247,749.9,01.17,0.508
2016-04-30 02:47:00,1748E-3,5C000400,-0724,0836,12143,032.5,045.6,0.247,749.8,01.17,0.508
2016-04-30 02:48:00,1850E-3,5C000400,-0724,0835,12076,032.5,045.6,0.246,749.9,01.17,0.508
2016-04-30 02:49:00,1828E-3,5C000400,-0724,0835,12223,032.5,045.6,0.246,749.9,01.17,0.508
2016-04-30 02:50:00,1876E-3,5C000400,-0724,0836,12175,032.5,045.6,0.247,749.9,01.17,0.508
2016-04-30 02:51:00,1888E-3,5C000400,-0724,0836,11986,032.6,045.6,0.247,749.9,01.17,0.508
2016-04-30 02:52:00,1943E-3,5C000400,-0724,0836,11999,032.6,045.6,0.246,749.9,01.17,0.508
2016-04-30 02:53:00,1884E-3,5C000400,-0724,0836,12196,032.6,045.6,0.246,749.9,01.17,0.508
2016-04-30 02:54:00,1824E-3,5C000400,-0724,0836,12119,032.6,045.6,0.246,749.9,01.17,0.508
2016-04-30 02:55:00,1947E-3,5C000400,-0724,0835,11979,032.6,045.6,0.247,749.9,01.17,0.508
2016-04-30 02:56:00,1920E-3,5C000400,-0724,0836,12212,032.6,045.6,0.246,749.9,01.17,0.508
2016-04-30 02:57:00,1887E-3,5C000400,-0724,0835,12104,032.6,045.6,0.246,749.9,01.17,0.508
2016-04-30 02:58:00,1883E-3,5C000400,-0724,0835,12140,032.6,045.6,0.246,749.9,01.17,0.508
2016-04-30 02:59:00,1867E-3,5C000400,-0724,0836,12230,032.6,045.6,0.246,749.9,01.17,0.508
2016-04-30 03:00:00,1846E-3,5C000400,-0724,0835,12225,032.7,045.6,0.247,749.9,01.17,0.508
2016-04-30 03:01:00,1930E-3,5C000400,-0724,0836,12254,032.7,045.6,0.246,749.9,01.17,0.508
2016-04-30 03:02:00,1787E-3,5C000400,-0724,0836,12210,032.7,045.6,0.246,749.9,01.17,0.508
2016-04-30 03:03:00,1799E-3,5C000400,-0724,0836,12047,032.7,045.6,0.246,749.9,01.17,0.508
2016-04-30 03:04:00,1944E-3,5C000400,-0724,0836,12168,032.7,045.6,0.247,749.9,01.17,0.508
2016-04-30 03:05:00,1884E-3,5C000400,-0724,0835,12273,032.7,045.6,0.246,749.9,01.17,0.508
2016-04-30 03:06:00,1907E-3,5C000400,-0724,0836,12140,032.7,045.6,0.246,749.9,01.17,0.508
2016-04-30 03:07:00,1888E-3,5C000400,-0724,0836,12106,032.7,045.6,0.246,750.0,01.17,0.508
2016-04-30 03:08:00,1874E-3,5C000400,-0724,0835,11968,032.7,045.6,0.247,749.9,01.17,0.508
2016-04-30 03:09:00,1905E-3,5C000400,-0724,0837,12130,032.7,045.6,0.247,749.9,01.17,0.508
2016-04-30 03:10:00,1934E-3,5C000400,-0724,0836,12042,032.8,045.6,0.247,750.0,01.17,0.508
2016-04-30 03:11:00,1998E-3,5C000400,-0724,0835,12119,032.7,045.6,0.246,750.0,01.17,0.508
2016-04-30 03:12:00,1872E-3,5C000400,-0724,0836,12257,032.7,045.6,0.246,750.0,01.17,0.508
2016-04-30 03:13:00,1881E-3,5C000400,-0724,0836,12042,032.7,045.6,0.246,750.0,01.17,0.508
2016-04-30 03:14:00,1928E-3,5C000400,-0724,0836,12027,032.8,045.6,0.246,750.1,01.17,0.508
2016-04-30 03:15:00,2012E-3,5C000400,-0724,0835,12154,032.8,045.6,0.246,750.1,01.17,0.508
2016-04-30 03:16:00,1956E-3,5C000400,-0724,0835,12015,032.8,045.6,0.246,750.1,01.17,0.508
2016-04-30 03:17:00,1938E-3,5C000400,-0724,0836,11943,032.8,045.6,0.246,750.1,01.17,0.508
2016-04-30 03:18:00,1877E-3,5C000400,-0724,0836,11956,032.8,045.6,0.246,750.1,01.17,0.508
2016-04-30 03:19:00,1961E-3,5C000400,-0724,0835,12133,032.8,045.6,0.246,750.1,01.17,0.508
2016-04-30 03:20:00,1820E-3,5C000400,-0724,0835,12040,032.8,045.6,0.246,750.1,01.17,0.508
2016-04-30 03:21:00,1908E-3,5C000400,-0724,0836,12089,032.8,045.6,0.246,750.1,01.17,0.508
2016-04-30 03:22:00,1858E-3,5C000400,-0724,0835,12003,032.8,045.6,0.246,750.1,01.17,0.508
2016-04-30 03:23:00,1991E-3,5C000400,-0724,0835,12049,032.8,045.6,0.246,750.1,01.17,0.508
2016-04-30 03:24:00,1942E-3,5C000400,-0724,0835,12049,032.8,045.6,0.246,750.1,01.17,0.508
2016-04-30 03:25:00,1885E-3,5C000400,-0724,0836,12048,032.8,045.6,0.246,750.1,01.17,0.508
2016-04-30 03:26:00,1983E-3,5C000400,-0724,0835,12150,032.9,045.6,0.245,750.1,01.17,0.508
2016-04-30 03:27:00,1939E-3,5C000400,-0724,0835,12108,032.9,045.6,0.246,750.1,01.17,0.508
2016-04-30 03:28:00,1902E-3,5C000400,-0724,0836,12250,032.9,045.6,0.246,750.1,01.17,0.508
2016-04-30 03:29:00,1973E-3,5C000400,-0724,0835,12162,032.9,045.6,0.246,750.1,01.17,0.508
2016-04-30 03:30:00,1745E-3,5C000400,-0724,0836,12283,032.9,045.6,0.246,750.1,01.17,0.508
2016-04-30 03:31:00,1906E-3,5C000400,-0724,0835,12102,032.8,045.6,0.245,750.1,01.17,0.508
2016-04-30 03:32:00,1771E-3,5C000400,-0724,0835,12126,032.8,045.6,0.245,750.1,01.17,0.508
2016-04-30 03:33:00,1791E-3,5C000400,-0724,0836,12070,032.7,045.6,0.246,750.1,01.17,0.508
2016-04-30 03:34:00,1819E-3,5C000400,-0724,0836,12040,032.6,045.6,0.246,750.2,01.17,0.508
2016-04-30 03:35:00,1791E-3,5C000400,-0724,0835,12031,032.6,045.6,0.246,750.2,01.17,0.508
2016-04-30 03:36:00,1938E-3,5C000400,-0724,0835,12131,032.5,045.6,0.246,750.2,01.17,0.508
2016-04-30 03:37:00,1850E-3,5C000400,-0724,0836,12091,032.5,045.6,0.246,750.2,01.17,0.508
2016-04-30 03:38:00,1889E-3,5C000400,-0724,0835,11911,032.4,045.6,0.246,750.2,01.17,0.508
2016-04-30 03:39:00,2048E-3,5C000400,-0724,0835,12285,032.4,045.6,0.246,750.2,01.17,0.508
2016-04-30 03:40:00,1831E-3,5C000400,-0724,0836,12121,032.3,045.5,0.246,750.2,01.17,0.508
2016-04-30 03:41:00,1975E-3,5C000400,-0724,0836,12199,032.3,045.6,0.246,750.2,01.17,0.508
2016-04-30 03:42:00,1853E-3,5C000400,-0724,0835,12126,032.2,045.6,0.246,750.1,01.17,0.508
2016-04-30 03:43:00,1754E-3,5C000400,-0724,0835,11980,032.1,045.6,0.246,750.2,01.17,0.508
2016-04-30 03:44:00,1845E-3,5C000400,-0724,0835,12181,032.1,045.6,0.246,750.2,01.17,0.508
2016-04-30 03:45:00,1916E-3,5C000400,-0724,0835,12128,032.0,045.6,0.246,750.2,01.17,0.508
2016-04-30 03:46:00,1954E-3,5C000400,-0724,0834,12178,032.0,045.6,0.246,750.2,01.17,0.508
2016-04-30 03:47:00,1946E-3,5C000400,-0724,0836,11942,032.0,045.5,0.246,750.2,01.17,0.508
2016-04-30 03:48:00,1746E-3,5C000400,-0724,0835,12159,031.9,045.6,0.247,750.2,01.17,0.508
2016-04-30 03:49:00,1937E-3,5C000400,-0724,0834,12141,031.9,045.6,0.247,750.2,01.17,0.508
2016-04-30 03:50:00,1818E-3,5C000400,-0724,0834,12184,031.8,045.6,0.247,750.2,01.17,0.508
2016-04-30 03:51:00,1934E-3,5C000400,-0724,0835,12141,031.8,045.6,0.247,750.2,01.17,0.508
2016-04-30 03:52:00,2009E-3,5C000400,-0724,0835,12064,031.7,045.6,0.247,750.2,01.17,0.508
2016-04-30 03:53:00,1831E-3,5C000400,-0724,0835,12093,031.7,045.5,0.247,750.2,01.17,0.508
2016-04-30 03:54:00,1861E-3,5C000400,-0724,0834,12112,031.7,045.5,0.248,750.2,01.17,0.508
2016-04-30 03:55:00,1760E-3,5C000400,-0724,0835,12139,031.6,045.5,0.248,750.3,01.17,0.508
2016-04-30 03:56:00,1937E-3,5C000400,-0724,0835,11947,031.6,045.5,0.248,750.3,01.17,0.508
2016-04-30 03:57:00,1881E-3,5C000400,-0724,0834,12180,031.6,045.5,0.248,750.3,01.17,0.508
2016-04-30 03:58:00,1880E-3,5C000400,-0724,0835,12037,031.5,045.5,0.248,750.3,01.17,0.508
2016-04-30 03:59:00,1891E-3,5C000400,-0724,0835,12310,031.4,045.5,0.248,750.4,01.17,0.508
2016-04-30 04:00:00,2012E-3,5C000400,-0724,0835,12215,031.4,045.5,0.248,750.4,01.17,0.508
2016-04-30 04:01:00,1821E-3,5C000400,-0724,0835,12254,031.4,045.5,0.248,750.4,01.17,0.508
2016-04-30 04:02:00,1905E-3,5C000400,-0724,0835,12174,031.3,045.5,0.249,750.4,01.17,0.508
2016-04-30 04:03:00,1948E-3,5C000400,-0724,0834,12107,031.3,045.5,0.248,750.4,01.17,0.508
2016-04-30 04:04:00,1775E-3,5C000400,-0724,0835,12160,031.3,045.5,0.248,750.4,01.17,0.508
2016-04-30 04:05:00,1936E-3,5C000400,-0724,0835,12153,031.3,045.5,0.248,750.4,01.17,0.508
2016-04-30 04:06:00,1976E-3,5C000400,-0724,0835,12149,031.3,045.5,0.248,750.4,01.17,0.508
2016-04-30 04:07:00,1886E-3,5C000400,-0724,0835,12102,031.2,045.5,0.249,750.4,01.17,0.508
2016-04-30 04:08:00,1779E-3,5C000400,-0724,0834,12224,031.2,045.5,0.249,750.4,01.17,0.508
2016-04-30 04:09:00,1864E-3,5C000400,-0724,0835,12269,031.2,045.5,0.249,750.4,01.17,0.508
2016-04-30 04:10:00,2033E-3,5C000400,-0724,0834,12225,031.2,045.5,0.249,750.4,01.17,0.508
2016-04-30 04:11:00,1903E-3,5C000400,-0724,0835,12128,031.1,045.5,0.249,750.4,01.17,0.508
2016-04-30 04:12:00,1983E-3,5C000400,-0724,0835,12166,031.2,045.5,0.249,750.4,01.17,0.508
2016-04-30 04:13:00,1802E-3,5C000400,-0724,0834,12075,031.2,045.5,0.249,750.4,01.17,0.508
2016-04-30 04:14:00,1929E-3,5C000400,-0724,0834,12193,031.1,045.5,0.249,750.4,01.17,0.508
2016-04-30 04:15:00,1871E-3,5C000400,-0724,0835,12163,031.1,045.5,0.249,750.4,01.17,0.508
2016-04-30 04:16:00,1872E-3,5C000400,-0724,0834,12164,031.0,045.5,0.249,750.4,01.17,0.508
2016-04-30 04:17:00,1909E-3,5C000400,-0724,0835,12069,031.1,045.5,0.249,750.4,01.17,0.508
2016-04-30 04:18:00,1913E-3,5C000400,-0724,0836,12205,031.0,045.5,0.249,750.4,01.17,0.508
2016-04-30 04:19:00,1871E-3,5C000400,-0724,0836,12129,031.0,045.5,0.250,750.5,01.17,0.508
2016-04-30 04:20:00,1949E-3,5C000400,-0724,0834,12200,031.0,045.5,0.250,750.5,01.17,0.508